Weather History for KRNP - November, 2012

Change the Weather History Date:

Tuesday, November 27, 2012

  Actual Average (KFNT) Record (KFNT)
Temperature  
Mean Temperature 28 °F 34 °F  
Max Temperature 36 °F 41 °F 66 °F (1990)
Min Temperature 20 °F 27 °F 4 °F (1930)
Degree Days  
Heating Degree Days 37 31  
Month to date heating degree days 690  
Since 1 July heating degree days 1386  
Cooling Degree Days 0 0  
Month to date cooling degree days 0  
Year to date cooling degree days 531  
Moisture  
Dew Point 19 °F    
Average Humidity 69    
Maximum Humidity 91    
Minimum Humidity 45    
Precipitation  
Precipitation 0.00 in 0.08 in 1.06 in (1994)
Month to date precipitation 2.43  
Year to date precipitation 29.21  
Snow  
Snow 0.00 in 0.20 in 4.00 in (1978)
Month to date snowfall 2.0  
Since 1 July snowfall 2.4  
Since 1 September snowfall 2.4  
Snow Depth -    
Sea Level Pressure  
Sea Level Pressure 30.28 in    
Wind  
Wind Speed 4 mph (WSW)    
Max Wind Speed 10 mph    
Max Gust Speed -    
Visibility 10 miles    
Events      
T = Trace of Precipitation, MM = Missing Value Source: NWS Daily Summary

Daily Weather History Graph

Daily Weather History Graph

Search for Another Location

Airport or City:

Trip Planner

Search our weather history database for the weather conditions in past years. The results will help you decide how hot, cold, wet, or windy it might be!

Date:

Astronomy

Nov. 27, 2012 Rise Set
Actual Time 7:44 AM EST 5:04 PM EST
Civil Twilight 7:12 AM EST 5:35 PM EST
Nautical Twilight 6:37 AM EST 6:10 PM EST
Astronomical Twilight 6:03 AM EST 6:45 PM EST
Moon 4:35 PM EST (11/27) 6:47 AM EST (11/27)
Length of Visible Light 10h 23m
Length of Day
9h 20m
Waxing Gibbous, 99% of the Moon is Illuminated
Nov 27
Waxing Gibbous
Nov 28
Full
Dec 6
Last Quarter
Dec 13
New
Dec 20
First Quarter

Hourly Weather History & Observations

Time (EST) Temp. Windchill Dew Point Humidity Pressure Visibility Wind Dir Wind Speed Gust Speed Precip Events Conditions
12:15 AM 30.0 °F 23.2 °F 20.3 °F 67% 30.28 in 10.0 mi WNW 6.9 mph - N/A   Overcast
12:35 AM 30.0 °F 23.2 °F 20.3 °F 67% 30.29 in 10.0 mi NW 6.9 mph - N/A   Overcast
12:55 AM 29.3 °F 24.3 °F 20.5 °F 70% 30.28 in 10.0 mi WNW 4.6 mph - N/A   Overcast
1:15 AM 28.9 °F 23.9 °F 20.7 °F 71% 30.28 in 10.0 mi NW 4.6 mph - N/A   Overcast
1:35 AM 28.2 °F 23.1 °F 21.0 °F 74% 30.28 in 10.0 mi WNW 4.6 mph - N/A   Overcast
1:55 AM 28.8 °F 25.0 °F 21.2 °F 73% 30.28 in 10.0 mi NW 3.5 mph - N/A   Overcast
2:15 AM 28.6 °F 22.4 °F 21.0 °F 73% 30.29 in 10.0 mi WNW 5.8 mph - N/A   Overcast
2:34 AM 27.0 °F 21.6 °F 20.7 °F 77% 30.29 in 10.0 mi WNW 4.6 mph - N/A   Scattered Clouds
2:55 AM 26.4 °F 20.9 °F 20.8 °F 79% 30.30 in 10.0 mi WNW 4.6 mph - N/A   Clear
3:15 AM 26.2 °F 20.7 °F 20.5 °F 79% 30.30 in 10.0 mi WNW 4.6 mph - N/A   Clear
3:35 AM 25.3 °F 19.7 °F 19.9 °F 80% 30.29 in 10.0 mi NW 4.6 mph - N/A   Clear
3:55 AM 24.6 °F 20.3 °F 19.4 °F 81% 30.29 in 10.0 mi WNW 3.5 mph - N/A   Clear
4:15 AM 24.4 °F 20.1 °F 19.2 °F 81% 30.29 in 10.0 mi WNW 3.5 mph - N/A   Clear
4:35 AM 23.5 °F 19.1 °F 19.0 °F 83% 30.29 in 10.0 mi WNW 3.5 mph - N/A   Clear
4:55 AM 23.9 °F 19.5 °F 19.0 °F 82% 30.29 in 10.0 mi WNW 3.5 mph - N/A   Clear
5:15 AM 23.7 °F 19.3 °F 18.5 °F 80% 30.30 in 10.0 mi WNW 3.5 mph - N/A   Clear
5:35 AM 23.4 °F - 17.6 °F 79% 30.30 in 10.0 mi Calm Calm - N/A   Clear
5:55 AM 22.6 °F - 17.8 °F 82% 30.30 in 10.0 mi Calm Calm - N/A   Clear
6:15 AM 20.1 °F - 16.3 °F 85% 30.31 in 10.0 mi Calm Calm - N/A   Clear
6:35 AM 20.3 °F - 17.4 °F 89% 30.31 in 10.0 mi Calm Calm - N/A   Clear
6:55 AM 21.2 °F - 18.1 °F 88% 30.31 in 10.0 mi Calm Calm - N/A   Clear
7:15 AM 20.3 °F - 17.1 °F 87% 30.32 in 10.0 mi Calm Calm - N/A   Clear
7:35 AM 20.3 °F - 17.8 °F 90% 30.32 in 10.0 mi Calm Calm - N/A   Clear
7:54 AM 20.3 °F - 18.1 °F 91% 30.32 in 10.0 mi Calm Calm - N/A   Clear
8:15 AM 21.7 °F 17.0 °F 18.1 °F 86% 30.32 in 10.0 mi West 3.5 mph - N/A   Clear
8:35 AM 23.4 °F 18.9 °F 19.6 °F 85% 30.33 in 10.0 mi West 3.5 mph - N/A   Clear
8:55 AM 25.7 °F 20.1 °F 19.9 °F 79% 30.33 in 10.0 mi West 4.6 mph - N/A   Clear
9:15 AM 27.3 °F 22.0 °F 20.1 °F 74% 30.34 in 10.0 mi West 4.6 mph - N/A   Clear
9:35 AM 28.8 °F 23.7 °F 19.8 °F 69% 30.33 in 10.0 mi West 4.6 mph - N/A   Clear
9:55 AM 30.2 °F 25.4 °F 19.8 °F 65% 30.33 in 10.0 mi West 4.6 mph - N/A   Clear
10:35 AM 31.3 °F 27.9 °F 18.5 °F 59% 30.33 in 10.0 mi NW 3.5 mph - N/A   Clear
10:55 AM 32.5 °F - 18.0 °F 55% 30.34 in 10.0 mi Calm Calm - N/A   Clear
11:15 AM 33.8 °F 30.8 °F 18.9 °F 54% 30.34 in 10.0 mi WNW 3.5 mph - N/A   Clear
11:35 AM 32.7 °F 26.4 °F 17.4 °F 53% 30.35 in 10.0 mi West 6.9 mph - N/A   Clear
11:55 AM 33.8 °F 27.7 °F 17.8 °F 52% 30.33 in 10.0 mi West 6.9 mph - N/A   Clear
12:15 PM 32.7 °F 27.3 °F 17.1 °F 53% 30.33 in 10.0 mi SW 5.8 mph - N/A   Clear
12:35 PM 33.4 °F 26.6 °F 17.1 °F 51% 30.32 in 10.0 mi SW 8.1 mph - N/A   Clear
12:55 PM 34.7 °F 27.5 °F 17.4 °F 49% 30.31 in 10.0 mi WSW 9.2 mph - N/A   Clear
1:15 PM 34.9 °F 27.7 °F 17.2 °F 49% 30.31 in 10.0 mi SW 9.2 mph - N/A   Clear
1:35 PM 35.6 °F 30.7 °F 17.8 °F 48% 30.29 in 10.0 mi WSW 5.8 mph - N/A   Clear
1:55 PM 36.1 °F 29.9 °F 17.2 °F 46% 30.29 in 10.0 mi WSW 8.1 mph - N/A   Clear
2:15 PM 36.1 °F 30.6 °F 16.7 °F 45% 30.28 in 10.0 mi SW 6.9 mph - N/A   Clear
2:35 PM 36.3 °F 28.9 °F 16.5 °F 45% 30.27 in 10.0 mi WSW 10.4 mph - N/A   Clear
2:55 PM 36.7 °F 29.9 °F 17.2 °F 45% 30.27 in 10.0 mi West 9.2 mph - N/A   Clear
3:15 PM 36.0 °F 28.5 °F 16.9 °F 46% 30.26 in 10.0 mi WSW 10.4 mph - N/A   Clear
3:35 PM 35.6 °F 30.7 °F 17.6 °F 48% 30.26 in 10.0 mi WSW 5.8 mph - N/A   Clear
3:54 PM 36.0 °F 29.6 °F 18.1 °F 48% 30.26 in 10.0 mi West 8.1 mph - N/A   Clear
4:15 PM 34.2 °F 29.0 °F 17.8 °F 51% 30.25 in 10.0 mi SW 5.8 mph - N/A   Clear
4:35 PM 33.6 °F - 18.0 °F 53% 30.25 in 10.0 mi Calm Calm - N/A   Clear
4:55 PM 32.9 °F 29.8 °F 18.3 °F 55% 30.24 in 10.0 mi WSW 3.5 mph - N/A   Clear
5:15 PM 32.2 °F - 18.3 °F 57% 30.24 in 10.0 mi Calm Calm - N/A   Clear
5:35 PM 30.9 °F - 19.2 °F 62% 30.24 in 10.0 mi Calm Calm - N/A   Clear
5:55 PM 27.9 °F - 20.3 °F 73% 30.24 in 10.0 mi Calm Calm - N/A   Clear
6:15 PM 28.8 °F - 19.2 °F 68% 30.24 in 10.0 mi Calm Calm - N/A   Clear
6:35 PM 26.4 °F - 19.6 °F 75% 30.24 in 10.0 mi Calm Calm - N/A   Clear
6:55 PM 28.0 °F 24.2 °F 20.1 °F 72% 30.25 in 10.0 mi SW 3.5 mph - N/A   Clear
7:15 PM 29.7 °F 26.1 °F 20.1 °F 68% 30.24 in 10.0 mi SW 3.5 mph - N/A   Clear
7:35 PM 29.1 °F 25.4 °F 20.1 °F 69% 30.24 in 10.0 mi SW 3.5 mph - N/A   Clear
7:55 PM 28.8 °F 25.0 °F 20.3 °F 71% 30.24 in 10.0 mi SSW 3.5 mph - N/A   Clear
8:15 PM 28.4 °F 24.6 °F 20.5 °F 72% 30.24 in 10.0 mi SSW 3.5 mph - N/A   Clear
8:35 PM 28.2 °F 24.4 °F 20.3 °F 72% 30.24 in 10.0 mi South 3.5 mph - N/A   Clear
8:54 PM 27.5 °F 23.6 °F 20.1 °F 74% 30.23 in 10.0 mi South 3.5 mph - N/A   Clear
9:15 PM 27.3 °F 22.0 °F 20.3 °F 75% 30.24 in 10.0 mi South 4.6 mph - N/A   Clear
9:35 PM 27.0 °F 21.6 °F 20.1 °F 75% 30.24 in 10.0 mi South 4.6 mph - N/A   Clear
9:55 PM 27.0 °F 21.6 °F 20.7 °F 77% 30.23 in 10.0 mi South 4.6 mph - N/A   Clear
10:15 PM 26.8 °F 22.8 °F 20.8 °F 78% 30.22 in 10.0 mi South 3.5 mph - N/A   Clear
10:35 PM 26.2 °F 20.7 °F 20.3 °F 78% 30.22 in 10.0 mi South 4.6 mph - N/A   Clear
10:55 PM 26.6 °F 20.0 °F 21.2 °F 80% 30.21 in 10.0 mi South 5.8 mph - N/A   Clear
11:15 PM 27.1 °F 20.7 °F 21.2 °F 78% 30.21 in 10.0 mi South 5.8 mph - N/A   Clear
11:55 PM 27.5 °F 21.1 °F 21.7 °F 79% 30.20 in 10.0 mi SSW 5.8 mph - N/A   Clear